Back to catalog

MOLNIYA 1-52

AliveCommunicationsHEO
NORAD 13012·PAYLOAD·🇷🇺 Russia

Launched Dec 23, 1981 from Baikonur Cosmodrome

Loading…

Next Passes (next 24 hours)

TLE

FreshSource: Space-Track

Epoch: Sep 14, 2026, 12:15 UTC

1 13012U 81123A   26257.51090197  .00001174  00000-0  50371-3 0  9998
2 13012  61.7536  52.2009 7474417 278.5662  11.0240  2.00428112327689

Track MOLNIYA 1-52 in real time with AllMySat

Download on the App Store